Location: Bannatyne
(13.0833°N, 59.5333°W)
Time: 20:08:03
(UTC+00:00)

Vanguard 3 - Pass Details

Date: 30 January 2020
Orbit: 508 x 3263 km, 33.3° (Epoch: 19 February)

Event Time Altitude Azimuth Distance (km) Brightness Sun altitude
Rises 22:36:09 0° 292° (WNW) 7,037 12.9 -9.7°
Reaches altitude 10° 22:41:31 10° 300° (WNW) 6,154 12.3 -11.0°
Maximum altitude 22:59:22 38° 2° (N) 4,066 10.5 -15.1°
Enters shadow 23:10:26 19° 57° (ENE) 4,544 10.3 -17.8°
Drops below altitude 10° 23:13:39 10° 66° (ENE) 4,993 - -18.5°
Sets 23:17:25 0° 75° (ENE) 5,648 - -19.4°
